Tracking 28790 objects as of 19-Apr-2024
HD Live streaming from Space Station
objects crossing your sky now

GSTAR 3

Track GSTAR 3 now!
GSTAR 3 is classified as:


NORAD ID: 19483
Int'l Code: 1988-081A
Perigee: 35,760.7 km
Apogee: 35,826.4 km
Inclination: 12.4 °
Period: 1,436.1 minutes
Semi major axis: 42164 km
RCS: 17.4917 m2 (large)
Launch date: September 8, 1988
Source: United States (US)
Launch site: FRENCH GUIANA (FRGUI)

GSTAR 3 is a telecommunications satellite
Your satellite tracking list
Your tracking list is empty




NASA's NSSDC Master Catalog

Two Line Element Set (TLE):
1 19483U 88081A   24109.61308731 -.00000109  00000-0  00000-0 0  9996
2 19483  12.4271 324.7054 0007788 173.4101 184.4338  1.00272389126671
Source of the keplerian elements: AFSPC